[[{"header":{"parameterUnit":"m.s-1","parameterCategory":1,"la1":30.2991,"la2":30.254,"lo1":-89.0895,"lo2":-89.0444,"dy":0.0017,"dx":0.0017,"nx":28,"ny":28,"refTime":"2026-02-18T03:00:00:Z","depth":0,"parameterNumber":2,"parameterNumberName":"U-component_of_WINDS"},"data":[0,0,0,0,0,0,0,0,0,0,0,0,0,0,0,0,0,0,0,0,0,0,0,0,0,0,0,0,0,0,0,0,0,0,0,0,0,0,0,0,0,0,0,0,0,0,0,0,0,0,0,0,0,0,0,0,0,0,-1.0979,-1.0979,0,-1.0986,-1.0986,-1.0986,-1.0983,-1.0983,-1.0983,-1.0982,-1.099,-1.099,-1.099,0,0,0,0,0,0,0,0,0,0,0,0,0,-1.0963,-1.0963,-1.0979,-1.0979,-1.098,-1.0986,-1.0986,-1.0986,-1.0983,-1.0983,-1.0983,-1.0982,-1.099,-1.099,-1.099,0,0,0,0,0,0,0,0,0,0,0,0,0,-1.097,-1.0963,-1.0979,-1.0979,-1.0979,-1.0986,-1.0986,-1.0986,-1.0983,-1.0983,-1.0983,-1.0982,-1.0989,-1.099,-1.099,-1.0999,0,0,-1.0992,-1.0992,0,0,0,0,0,0,0,0,-1.0969,-1.097,-1.0979,-1.0979,-1.0979,-1.0983,-1.0983,-1.099,-1.0983,-1.0981,-1.0982,-1.0982,-1.0988,-1.0988,-1.099,-1.0999,-1.0999,-1.0992,-1.0992,-1.0993,-1.0993,0,0,0,0,0,0,0,-1.0969,-1.097,-1.0982,-1.0979,-1.0979,-1.0978,-1.0978,-1.0984,-1.0986,-1.0982,-1.0981,-1.0982,-1.0988,-1.099,-1.099,-1.1,-1.0992,-1.0993,-1.0993,-1.0993,-1.1014,-1.1014,0,0,0,0,0,0,-1.0969,-1.097,-1.0982,-1.0982,-1.0973,-1.0978,-1.0979,-1.0982,-1.0986,-1.0986,-1.0982,-1.0982,-1.0989,-1.099,-1.0991,-1.0999,-1.0993,-1.0993,-1.0993,-1.1014,-1.1014,-1.1014,0,0,0,0,0,0,-1.0968,-1.097,-1.0982,-1.0976,-1.0977,-1.0979,-1.0982,-1.0982,-1.0984,-1.0987,-1.0987,-1.0984,-1.0989,-1.099,-1.0996,-1.1,-1.0993,-1.0994,-1.1013,-1.1014,-1.1014,-1.1018,0,0,0,0,0,0,-1.0968,-1.097,-1.0973,-1.0976,-1.0978,-1.0987,-1.0983,-1.0983,-1.0985,-1.0985,-1.0988,-1.0989,-1.0989,-1.0996,-1.0997,-1.1,-1.0994,-1.1013,-1.1013,-1.1014,-1.1018,-1.1018,-1.1019,0,0,0,0,0,-1.0967,-1.0975,-1.0973,-1.0975,-1.0982,-1.0988,-1.0989,-1.0989,-1.0986,-1.0989,-1.099,-1.0988,-1.0999,-1.0996,-1.0998,-1.1001,-1.1013,-1.1013,-1.1014,-1.1017,-1.1018,-1.1019,0,0,0,0,0,0,-1.0973,-1.0975,-1.0974,-1.0982,-1.0985,-1.0987,-1.0991,-1.099,-1.0993,-1.0993,-1.0993,-1.0993,-1.1,-1.1001,-1.0998,-1.1009,-1.1005,-1.1006,-1.1008,-1.1009,-1.1009,-1.1009,-1.0995,0,0,0,0,0,-1.0975,-1.0979,-1.0981,-1.0988,-1.0989,-1.099,-1.0993,-1.0992,-1.0995,-1.0996,-1.0997,-1.1,-1.1004,-1.1006,-1.101,-1.1018,-1.1018,-1.1021,-1.1022,-1.1022,-1.1023,-1.1026,-1.1027,-1.1016,-1.1016,-1.1016,0,0,-1.0979,-1.0981,-1.0984,-1.0989,-1.0991,-1.0995,-1.0991,-1.0996,-1.0999,-1.0997,-1.1002,-1.1004,-1.1006,-1.1013,-1.1016,-1.1014,-1.1026,-1.1023,-1.1023,-1.1024,-1.1026,-1.1027,-1.1028,-1.1016,-1.1016,-1.1016,0,0,-1.0989,-1.0992,-1.0997,-1.0999,-1.1001,-1.1001,-1.1003,-1.1005,-1.1005,-1.1011,-1.1009,-1.1012,-1.1019,-1.1021,-1.1023,-1.1031,-1.103,-1.1033,-1.1037,-1.1039,-1.104,-1.1041,-1.1043,-1.1044,-1.1033,-1.1033,-1.1033,0,-1.0995,-1.1001,-1.1,-1.1005,-1.1006,-1.1004,-1.1009,-1.1011,-1.1015,-1.1016,-1.1014,-1.1021,-1.1023,-1.1029,-1.1031,-1.1033,-1.1034,-1.1032,-1.104,-1.1041,-1.1042,-1.1044,-1.1045,-1.1034,-1.1034,-1.1033,-1.1033,0,-1.1006,-1.1011,-1.1015,-1.1018,-1.102,-1.1025,-1.1024,-1.1027,-1.1026,-1.1026,-1.1031,-1.1033,-1.1036,-1.1038,-1.1037,-1.1043,-1.1042,-1.104,-1.1037,-1.1043,-1.1045,-1.1046,-1.1034,-1.1034,-1.1034,-1.1034,0,0,-1.1021,-1.1022,-1.1024,-1.1024,-1.1026,-1.1029,-1.1033,-1.1036,-1.1038,-1.104,-1.1043,-1.1048,-1.1046,-1.1048,-1.1047,-1.105,-1.1055,-1.1047,-1.1047,-1.1048,-1.1061,-1.1062,-1.1063,-1.1054,-1.1054,-1.1054,-1.106,0,-1.103,-1.1037,-1.1036,-1.1043,-1.1046,-1.1043,-1.1047,-1.1048,-1.1048,-1.105,-1.105,-1.1053,-1.1051,-1.1051,-1.1054,-1.1054,-1.1057,-1.1053,-1.1056,-1.1056,-1.1055,-1.1064,-1.1065,-1.1071,-1.1061,-1.1061,-1.1061,0,-1.1042,-1.1044,-1.1051,-1.1051,-1.1052,-1.1056,-1.1057,-1.106,-1.1061,-1.106,-1.1062,-1.106,-1.1064,-1.106,-1.1064,-1.1062,-1.1062,-1.1063,-1.1063,-1.1063,-1.1059,-1.1063,-1.1073,-1.1073,-1.1063,-1.1062,-1.1062,0,-1.1051,-1.1055,-1.1059,-1.106,-1.1061,-1.1063,-1.1063,-1.1064,-1.1065,-1.1066,-1.1067,-1.1069,-1.107,-1.1071,-1.107,-1.1068,-1.1074,-1.1071,-1.1073,-1.1073,-1.1075,-1.1074,-1.1084,-1.1076,-1.1076,-1.1076,-1.1076,0,-1.1061,-1.1065,-1.1063,-1.1066,-1.107,-1.1068,-1.1072,-1.1072,-1.1072,-1.1074,-1.1072,-1.1074,-1.1073,-1.1074,-1.1073,-1.1076,-1.1077,-1.1076,-1.1076,-1.1076,-1.1076,-1.1077,-1.1076,-1.1076,-1.1076,-1.1076,-1.1076,0,-1.1071,-1.107,-1.1074,-1.1074,-1.1074,-1.1077,-1.1076,-1.1078,-1.1077,-1.108,-1.1081,-1.108,-1.1081,-1.108,-1.1082,-1.1081,-1.1085,-1.1085,-1.1085,-1.1084,-1.1087,-1.1086,-1.1096,-1.1097,-1.1089,-1.1089,-1.1089,0,-1.1077,-1.108,-1.108,-1.1081,-1.1081,-1.1083,-1.1084,-1.1082,-1.1083,-1.1083,-1.1085,-1.1087,-1.1088,-1.1091,-1.109,-1.1091,-1.109,-1.1093,-1.109,-1.109,-1.1089,-1.1089,-1.1089,-1.1094,-1.1094,-1.1094,-1.1094,0,-1.1088,-1.1087,-1.1089,-1.1089,-1.109,-1.1091,-1.1092,-1.1093,-1.1091,-1.1092,-1.1093,-1.1094,-1.1095,-1.1096,-1.1097,-1.1097,-1.1095,-1.1095,-1.1096,-1.1096,-1.1095,-1.1095,-1.1086,-1.1095,-1.1095,-1.1095,-1.1095,-1.1095,-1.1096,-1.1098,-1.1097,-1.1099,-1.1099,-1.1099,-1.11,-1.1099,-1.1101,-1.1101,-1.11,-1.1102,-1.1101,-1.1102,-1.1102,-1.1103,-1.1102,-1.1103,-1.1103,-1.1103,-1.1103,-1.1096,-1.1103,-1.1103,-1.1103,-1.1103,-1.1103,0,-1.1106,-1.1105,-1.1106,-1.1107,-1.1107,-1.1105,-1.1105,-1.1106,-1.1107,-1.1107,-1.1108,-1.1109,-1.111,-1.1109,-1.1109,-1.111,-1.1109,-1.111,-1.111,-1.111,-1.1104,-1.1104,-1.1111,-1.1111,-1.1111,-1.1111,-1.1111,-1.1111,-1.1111,-1.1114,-1.1112,-1.1115,-1.1114,-1.1115,-1.1115,-1.1115,-1.1115,-1.1116,-1.1117,-1.1116,-1.1115,-1.1115,-1.1116,-1.1115,-1.1115,-1.1117,-1.1116,-1.1111,-1.111,-1.1109,-1.1109,-1.1117,-1.1117,-1.1121,-1.1121,-1.1121]},{"header":{"parameterUnit":"m.s-1","parameterCategory":1,"la1":30.2991,"la2":30.254,"lo1":-89.0895,"lo2":-89.0444,"dy":0.0017,"dx":0.0017,"nx":28,"ny":28,"refTime":"2026-02-18T03:00:00:Z","depth":0,"parameterNumber":3,"parameterNumberName":"V-component_of_WINDS"},"data":[0,0,0,0,0,0,0,0,0,0,0,0,0,0,0,0,0,0,0,0,0,0,0,0,0,0,0,0,0,0,0,0,0,0,0,0,0,0,0,0,0,0,0,0,0,0,0,0,0,0,0,0,0,0,0,0,0,0,3.5075,3.5075,0,3.5133,3.5134,3.5134,3.5117,3.5116,3.5114,3.5113,3.5175,3.5177,3.518,0,0,0,0,0,0,0,0,0,0,0,0,0,3.495,3.4952,3.5075,3.5075,3.5076,3.5133,3.5134,3.5135,3.5117,3.5116,3.5114,3.5113,3.5174,3.5177,3.518,0,0,0,0,0,0,0,0,0,0,0,0,0,3.5006,3.4953,3.5074,3.5074,3.5075,3.5133,3.5134,3.5135,3.5117,3.5116,3.5114,3.5112,3.5173,3.5177,3.5181,3.5243,0,0,3.5194,3.5195,0,0,0,0,0,0,0,0,3.5003,3.501,3.5073,3.5074,3.5075,3.5116,3.5112,3.5171,3.5118,3.5101,3.5113,3.5111,3.5157,3.5162,3.5177,3.5246,3.5249,3.5194,3.5196,3.5198,3.5199,0,0,0,0,0,0,0,3.4999,3.5008,3.5098,3.5074,3.5075,3.5072,3.5078,3.5123,3.5139,3.5103,3.5101,3.5109,3.5157,3.5173,3.5178,3.525,3.5194,3.5197,3.52,3.5202,3.5375,3.5377,0,0,0,0,0,0,3.4994,3.5005,3.5096,3.51,3.5033,3.5076,3.5082,3.5105,3.5138,3.5141,3.511,3.5107,3.5167,3.5174,3.518,3.5257,3.5198,3.5202,3.5204,3.5373,3.5376,3.5378,0,0,0,0,0,0,3.4991,3.5002,3.5094,3.5052,3.5063,3.508,3.5105,3.5107,3.5123,3.5144,3.5146,3.5124,3.5166,3.5175,3.5228,3.5259,3.5204,3.5208,3.5371,3.5374,3.5377,3.5411,0,0,0,0,0,0,3.4988,3.5002,3.5025,3.5052,3.5065,3.514,3.5107,3.5109,3.513,3.5127,3.5157,3.5161,3.5165,3.5222,3.5232,3.5264,3.5211,3.5368,3.5372,3.5376,3.5407,3.5415,3.5421,0,0,0,0,0,3.4984,3.5032,3.5026,3.5037,3.5095,3.5141,3.5149,3.5153,3.5133,3.5157,3.517,3.516,3.5254,3.5228,3.5239,3.5273,3.5366,3.5371,3.5376,3.5404,3.5413,3.5421,0,0,0,0,0,0,3.5007,3.5035,3.5029,3.5088,3.5112,3.5138,3.5169,3.5162,3.5193,3.5189,3.5193,3.52,3.5255,3.5269,3.5239,3.5336,3.5307,3.5315,3.5325,3.5334,3.5341,3.5337,3.5214,0,0,0,0,0,3.5019,3.5054,3.5077,3.5127,3.5139,3.5152,3.5172,3.5173,3.5199,3.5209,3.5227,3.5253,3.5288,3.5312,3.5345,3.5409,3.5416,3.5438,3.5445,3.545,3.5457,3.5494,3.5504,3.5394,3.5394,3.5394,0,0,3.5045,3.5064,3.5086,3.5132,3.5151,3.5188,3.5161,3.5201,3.5229,3.5216,3.5268,3.5281,3.5311,3.537,3.5397,3.5383,3.5489,3.5457,3.5461,3.5465,3.55,3.551,3.5519,3.5397,3.5396,3.5396,0,0,3.511,3.5128,3.5172,3.5192,3.5221,3.523,3.524,3.5268,3.5276,3.5329,3.532,3.5354,3.5414,3.5436,3.5455,3.5531,3.5523,3.5542,3.558,3.5615,3.5624,3.5632,3.5661,3.5671,3.5548,3.5548,3.5548,0,3.5138,3.5193,3.5196,3.5237,3.5258,3.5248,3.5293,3.5313,3.5352,3.5367,3.5351,3.5429,3.5447,3.5513,3.5531,3.5546,3.556,3.5539,3.5622,3.563,3.5638,3.5665,3.5676,3.555,3.555,3.555,3.555,0,3.5227,3.5266,3.5298,3.5336,3.5361,3.5404,3.5414,3.5439,3.5438,3.5448,3.5503,3.5525,3.5564,3.5579,3.5578,3.5645,3.5636,3.5621,3.5593,3.565,3.5676,3.5687,3.5553,3.5553,3.5552,3.5551,0,0,3.5309,3.5349,3.5361,3.5379,3.5411,3.5442,3.5485,3.5523,3.5545,3.5573,3.561,3.5663,3.565,3.5672,3.5673,3.5704,3.5765,3.5686,3.5687,3.5701,3.5842,3.5854,3.5866,3.576,3.5762,3.5763,3.5841,0,3.5379,3.5455,3.5459,3.5528,3.5565,3.5556,3.5594,3.5619,3.563,3.5663,3.5676,3.5714,3.5693,3.5706,3.5736,3.5751,3.5794,3.5746,3.5796,3.5798,3.5791,3.588,3.5892,3.5964,3.5851,3.5852,3.5853,0,3.547,3.5501,3.5574,3.5603,3.5618,3.5652,3.5689,3.572,3.5748,3.5754,3.578,3.5777,3.5823,3.5792,3.5857,3.5824,3.5845,3.5856,3.5859,3.5865,3.583,3.589,3.5987,3.5998,3.5869,3.5868,3.5867,0,3.5525,3.5584,3.5636,3.5652,3.5686,3.5711,3.5726,3.5753,3.5776,3.5808,3.5823,3.586,3.5881,3.591,3.5918,3.5895,3.5983,3.5952,3.5991,3.5991,3.6011,3.601,3.6114,3.6022,3.6022,3.6021,3.6021,0,3.5603,3.5648,3.5662,3.5694,3.5745,3.575,3.5801,3.5815,3.5839,3.5875,3.5869,3.5903,3.5911,3.5947,3.5953,3.6007,3.6016,3.6023,3.6025,3.6025,3.6024,3.604,3.6035,3.6024,3.6024,3.6023,3.6023,0,3.5673,3.5683,3.574,3.5768,3.5776,3.5813,3.5838,3.5869,3.588,3.5926,3.5936,3.5954,3.5996,3.6006,3.6056,3.6061,3.6125,3.6121,3.6116,3.6116,3.6154,3.6151,3.6274,3.6291,3.6186,3.6187,3.6187,0,3.5723,3.5758,3.579,3.5813,3.583,3.5868,3.5892,3.5898,3.5923,3.5959,3.5987,3.6028,3.6062,3.6129,3.6147,3.6186,3.6184,3.6224,3.619,3.6189,3.6187,3.6185,3.619,3.6231,3.6232,3.6233,3.6234,0,3.5811,3.5815,3.5849,3.5886,3.5915,3.5944,3.5972,3.5992,3.6002,3.6032,3.6074,3.61,3.6152,3.6194,3.6233,3.625,3.6245,3.6244,3.6256,3.6257,3.6253,3.6258,3.6135,3.6242,3.6241,3.624,3.624,3.624,3.5874,3.5905,3.5933,3.5972,3.5994,3.6021,3.6053,3.6068,3.6103,3.6146,3.6147,3.6195,3.6224,3.6276,3.6296,3.6333,3.6321,3.6337,3.6342,3.6346,3.635,3.6246,3.634,3.634,3.634,3.634,3.634,0,3.5963,3.5981,3.6017,3.6057,3.6088,3.6079,3.611,3.6137,3.6179,3.6206,3.624,3.629,3.6331,3.6352,3.6393,3.6419,3.6418,3.643,3.6429,3.6434,3.6358,3.6345,3.6431,3.6431,3.6431,3.6431,3.6431,3.6431,3.6013,3.6067,3.6074,3.6139,3.6157,3.6203,3.6222,3.6247,3.6269,3.6326,3.636,3.6373,3.6398,3.6441,3.6479,3.6484,3.6501,3.6515,3.6519,3.6448,3.6439,3.643,3.6418,3.6518,3.6518,3.6592,3.6592,3.6593]}]]